RH
17 26 42 55 56 49 46 29 20 20 18 19 19 19 20 20 22 21 20 20 18 18 17 15 12 11 10 9 9 9 12 16 30 33 36 44 47 56 56 52 41 34 36
19 20 24 24 28 39 46 49 34 20 22 18 20 20 20 21 23 24 22 20 16 13 11 10 10 9 9 10 10 10 11 16 20 28 28 41 43 41 47 56 62 59 54
22 24 29 29 26 25 33 43 45 26 25 20 20 26 28 25 24 20 14 12 12 11 10 10 10 10 10 10 10 12 13 14 16 19 21 32 38 44 50 54 56 62 65
26 30 42 43 48 36 41 38 46 36 27 23 22 28 29 23 16 12 11 12 12 11 11 10 10 10 10 11 13 14 7 4 4 6 11 17 26 35 44 46 48 50 50
28 33 51 56 58 60 52 42 43 34 30 24 25 25 20 14 12 12 13 12 12 11 11 10 10 11 12 11 5 3 3 4 4 4 4 4 5 7 14 30 44 47 95
24 31 42 52 50 47 44 41 34 30 29 22 23 19 14 12 13 14 13 12 12 11 11 12 13 12 4 4 6 8 10 12 13 13 12 10 8 6 6 7 9 25 91
20 23 30 41 45 46 40 33 32 29 21 19 18 15 13 13 14 13 13 13 12 14 17 12 6 8 10 13 15 17 18 20 21 21 20 19 17 16 16 11 10 12 23
15 20 19 25 34 38 35 30 27 22 19 17 15 14 12 12 12 14 14 14 17 19 9 10 10 8 6 4 4 4 4 5 11 19 23 23 21 20 19 18 17 13 12
8 15 19 18 19 26 30 28 22 19 18 16 15 14 13 13 14 17 19 22 19 9 15 12 7 6 6 5 5 4 4 4 4 4 4 8 16 21 21 21 20 19 17
6 8 13 18 19 18 22 27 24 20 17 16 17 16 16 17 16 22 22 17 11 17 13 10 7 6 6 6 5 5 5 5 5 4 4 5 4 8 19 21 22 22 20
8 6 5 12 18 24 25 24 25 23 20 18 17 18 22 24 23 20 12 16 20 16 10 6 5 5 6 7 6 5 6 5 5 5 5 7 6 6 13 22 23 22 24
26 9 7 5 5 10 19 22 23 25 22 23 23 22 22 21 18 11 20 22 17 16 9 7 6 6 7 8 8 7 6 6 6 6 6 6 6 8 14 24 26 26 25
62 45 10 8 6 6 5 6 13 19 17 18 19 20 20 12 10 22 27 24 19 13 8 8 8 7 7 7 8 9 8 7 7 6 6 6 6 6 7 7 8 14 23
57 64 55 21 9 8 7 6 5 5 6 12 14 14 14 14 14 14 16 17 16 15 14 13 8 5 6 6 6 6 7 7 7 6 5 6 5 5 5 6 7 6 7
29 46 66 66 55 16 9 9 8 7 6 6 6 6 6 6 6 6 6 6 5 8 12 10 6 5 4 5 6 6 6 7 7 7 7 6 5 5 6 6 7 7 6
11 12 19 44 61 63 52 18 10 10 10 9 8 8 7 7 6 6 6 6 6 5 5 6 5 4 4 5 6 10 11 9 8 7 9 9 9 6 7 8 9 10 11
30 29 27 24 28 44 61 66 55 30 13 11 10 10 10 9 8 7 7 8 8 9 9 9 7 6 6 6 9 14 16 15 10 14 7 12 30 29 10 7 8 9 10
15 16 19 24 28 31 36 49 61 68 70 69 60 38 19 12 11 12 11 11 12 13 13 13 14 14 13 12 9 8 9 10 15 9 12 13 26 30 43 25 7 7 8
12 11 13 13 14 16 17 23 31 38 45 55 63 69 75 80 77 61 40 27 17 14 13 12 12 12 12 12 11 11 11 12 16 33 28 32 28 47 43 52 30 12 10
13 13 13 12 12 13 14 18 22 23 27 34 38 39 41 54 69 76 82 86 86 88 91 93 100 93 74 55 37 36 50 40 28 66 83 81 77 84 77 65 62 46 28
18 16 15 14 14 15 16 17 18 24 29 35 37 38 34 32 29 32 36 37 39 43 48 56 54 48 67 85 92 98 96 87 83 95 100 94 91 87 64 51 54 46 55
20 18 17 16 15 15 19 22 25 28 30 34 40 45 44 37 35 45 52 56 63 65 66 64 61 49 29 24 22 27 29 67 51 32 30 29 30 28 20 19 17 21 23
21 20 20 19 18 18 20 21 26 33 36 39 41 48 60 68 68 68 57 54 55 58 61 62 64 70 70 67 54 33 24 22 24 27 19 18 19 20 19 20 21 19 18
22 21 22 21 22 22 24 28 31 38 46 49 55 62 71 86 90 89 93 98 99 100 99 93 88 90 86 87 86 67 43 31 27 28 41 29 30 47 84 72 66 58 39
20 21 23 27 29 30 33 39 44 48 58 67 73 84 89 99 100 97 92 95 96 98 97 92 88 91 99 100 100 98 91 58 39 36 33 33 35 37 42 40 40 36 29
21 24 28 30 30 32 33 36 45 54 60 69 77 81 87 93 99 100 96 96 100 100 98 96 92 88 94 98 100 100 100 100 98 99 98 85 86 83 80 78 68 57 52
Wind_Speed
60 63 64 65 65 65 60 58 55 54 53 51 48 46 43 41 39 38 37 36 37 36 34 33 32 32 32 33 34 35 37 38 38 38 37 36 36 36 36 38 39 39 38
58 60 57 57 61 63 62 56 52 50 51 48 47 44 41 39 37 35 35 34 34 33 32 32 33 34 35 37 39 40 43 44 45 45 44 43 42 41 40 39 38 39 40
56 55 45 41 38 40 51 53 48 45 45 44 43 41 39 37 36 35 34 33 33 33 34 35 36 38 40 41 44 46 49 50 51 51 50 49 48 47 45 44 42 40 40
53 50 41 33 24 19 30 40 44 39 38 37 37 39 37 35 35 34 34 33 34 35 36 38 40 41 44 46 49 50 50 51 52 54 54 53 52 51 49 47 46 46 47
46 46 37 28 19 10 8 27 33 33 31 32 33 35 35 34 33 34 34 35 36 37 39 41 42 44 46 48 47 47 47 47 49 51 53 54 54 53 52 50 49 50 54
38 41 35 26 17 10 5 14 21 24 24 26 29 31 32 32 32 33 34 35 37 38 39 40 42 44 43 41 40 38 38 38 38 39 41 43 44 47 50 52 52 54 41
33 34 31 24 16 8 8 11 15 18 20 23 26 28 30 31 32 33 34 34 35 36 39 39 37 34 32 31 31 31 32 34 35 35 36 39 41 44 45 46 48 53 53
32 30 29 22 15 10 4 4 11 16 19 21 24 27 28 30 31 31 32 33 35 37 36 32 29 27 25 26 27 27 28 30 31 34 37 38 37 38 42 45 47 46 47
33 28 26 23 18 10 6 6 8 11 16 20 22 25 26 28 30 31 32 34 35 34 31 30 28 27 28 29 27 26 26 28 30 31 32 34 37 38 37 40 46 48 44
30 29 26 24 20 15 11 10 10 11 13 17 20 22 25 27 29 31 33 35 33 31 30 30 30 29 28 29 29 28 29 29 31 33 34 34 34 35 36 36 37 44 46
28 26 26 24 21 17 13 11 14 15 17 19 22 25 27 29 32 34 35 33 32 31 31 31 31 31 30 32 33 33 32 32 33 34 34 37 37 34 34 34 34 35 39
29 27 24 22 22 19 16 15 15 17 20 22 25 28 31 34 36 34 33 34 34 34 32 34 35 35 33 33 36 36 35 34 34 33 33 33 31 30 31 33 34 33 34
28 29 27 24 22 21 20 17 16 17 21 26 30 33 35 34 33 34 35 35 37 38 37 38 38 37 36 36 36 36 37 35 34 33 33 28 27 28 28 29 30 32 34
28 28 30 29 26 26 25 24 22 21 22 23 26 28 30 32 33 34 35 37 38 40 43 44 44 41 39 37 36 36 36 36 34 35 35 31 28 30 32 31 31 33 33
29 28 29 31 31 30 28 27 27 29 30 29 30 32 33 34 34 35 36 38 39 40 43 46 46 45 43 40 39 38 37 37 36 36 36 35 33 32 32 31 30 29 31
28 31 31 31 31 33 35 34 32 32 33 33 35 37 38 39 39 39 38 38 39 39 38 44 45 45 45 45 43 42 41 40 40 39 38 36 36 37 37 36 34 32 30
29 28 28 30 32 34 36 37 40 42 41 41 41 40 41 41 43 45 44 44 44 43 42 42 43 44 46 47 49 49 47 46 43 42 44 42 43 44 42 43 41 39 37
26 26 29 32 33 34 36 39 40 42 43 46 48 49 50 50 51 51 51 52 52 51 51 49 50 50 48 48 50 51 53 51 51 49 47 47 47 47 45 46 47 46 46
32 32 31 30 31 33 36 39 42 44 46 48 49 51 52 53 54 56 57 58 59 59 58 57 55 57 57 56 54 53 52 53 55 56 56 55 52 51 52 50 50 48 49
38 39 39 39 40 40 39 40 43 46 50 52 52 53 54 55 56 56 56 56 57 57 57 56 55 55 57 59 59 58 56 57 59 62 60 58 56 53 51 51 49 52 53
44 44 46 47 48 48 47 47 48 50 52 56 58 60 60 58 57 57 57 57 57 58 58 58 57 57 57 57 55 54 53 53 55 53 52 53 54 54 54 53 52 52 51
50 50 50 51 53 54 54 54 54 56 57 59 61 64 66 65 64 61 60 59 58 57 56 54 53 54 54 55 55 56 58 58 55 54 54 55 54 55 53 52 53 53 54
54 55 56 56 57 59 59 60 62 62 63 65 66 68 70 71 70 69 66 64 62 62 62 60 58 59 58 57 56 55 56 55 56 56 53 51 50 50 50 53 54 55 55
60 60 62 62 61 63 63 65 66 68 68 69 70 70 70 69 70 70 70 69 69 67 67 66 66 64 64 63 62 61 58 57 57 58 56 55 55 57 61 61 61 62 63
64 64 65 65 64 66 68 68 68 70 70 71 72 71 71 69 68 69 69 69 68 68 68 66 65 63 62 62 64 63 64 62 58 59 60 58 58 57 57 58 60 61 61
65 65 65 65 65 66 68 69 71 72 73 73 73 74 73 73 72 72 72 71 68 67 68 67 67 67 65 63 64 64 65 66 66 67 68 68 67 68 68 69 67 66 64
Wind_Direction
311 303 291 281 272 266 259 256 252 247 242 244 242 241 242 244 245 246 248 248 250 252 252 253 255 259 262 265 267 269 271 271 271 271 271 269 268 267 266 265 264 265 264
322 316 302 288 275 262 254 246 246 244 242 242 241 240 240 241 242 243 244 245 247 248 249 252 256 260 263 267 270 272 273 273 274 273 272 271 270 267 266 266 266 266 265
334 331 325 312 291 265 249 237 234 239 239 238 242 239 238 238 240 242 243 243 245 249 253 256 259 263 266 268 270 272 274 274 274 273 271 270 268 268 268 266 265 266 266
341 342 340 338 331 280 247 228 224 233 235 235 237 238 237 237 240 241 242 245 250 254 258 261 264 267 270 272 274 273 272 271 270 270 269 268 266 265 264 264 264 264 263
346 348 351 355 358 348 246 212 214 227 227 233 234 236 239 238 239 242 246 250 254 259 264 267 271 274 276 276 274 274 273 271 269 268 268 267 267 266 264 261 262 262 260
350 352 356 4 18 40 118 187 207 217 221 232 236 235 237 239 240 245 250 255 260 265 270 273 275 277 276 275 274 272 271 271 270 269 269 269 268 266 264 263 258 257 255
347 353 355 2 16 47 124 164 194 210 221 231 238 239 240 242 246 251 256 261 266 270 274 277 276 273 270 268 268 269 270 269 268 268 268 268 267 266 264 263 261 259 259
337 346 352 352 359 8 14 215 212 215 223 231 239 243 245 246 249 255 260 264 267 273 273 269 268 267 267 270 272 274 276 276 274 271 269 269 269 267 263 260 259 261 261
333 333 337 345 343 331 307 286 260 249 240 235 236 243 248 253 256 257 261 265 269 267 263 262 263 267 271 273 274 275 275 275 276 276 274 272 269 267 266 264 259 254 257
325 331 332 329 333 330 306 276 257 246 246 248 247 244 248 253 257 261 268 269 264 259 261 263 262 266 270 268 266 264 269 274 278 277 275 275 272 268 264 264 265 259 254
316 321 324 328 325 325 315 290 265 251 244 241 245 247 250 254 259 265 267 261 256 257 263 262 263 266 266 265 262 263 267 273 280 282 280 282 272 266 261 261 261 262 260
302 309 312 315 319 320 312 299 279 264 255 250 250 253 257 260 262 261 258 258 256 258 262 264 265 267 267 265 264 265 270 276 282 283 283 289 265 262 262 260 259 258 258
294 296 300 303 302 304 306 303 294 276 263 259 257 258 260 261 258 259 261 261 264 267 269 267 265 266 267 266 264 265 268 275 279 279 281 285 265 258 260 263 264 264 263
298 291 291 292 296 297 295 293 291 287 283 276 268 264 263 263 263 263 261 261 262 266 271 273 273 270 268 266 264 265 267 269 271 274 275 274 270 264 265 265 263 261 260
296 296 289 286 288 287 287 288 288 285 279 274 273 273 272 271 270 267 265 263 263 263 265 268 268 268 268 267 265 265 265 266 267 267 267 269 266 262 260 263 265 267 264
298 292 290 289 287 282 279 279 278 277 278 277 276 276 275 274 273 273 273 273 271 269 265 264 267 268 269 269 267 266 266 267 268 266 264 265 265 263 261 259 260 262 266
314 310 304 295 289 287 285 283 278 276 274 273 274 273 272 271 272 272 271 270 269 269 268 266 266 267 268 269 269 271 271 271 269 266 264 263 268 268 265 261 260 261 262
309 308 306 303 302 298 292 287 283 280 279 279 278 276 274 273 271 270 269 269 269 270 270 269 269 268 267 266 267 268 269 269 270 269 265 262 262 266 266 263 259 258 260
309 308 305 303 300 295 294 292 289 286 283 281 279 277 276 276 275 273 272 271 270 270 270 270 270 269 269 269 268 267 267 266 265 268 268 267 264 265 263 262 258 258 258
307 305 304 302 300 298 294 287 282 281 281 280 278 276 276 275 274 273 274 273 272 271 271 271 272 272 271 271 271 270 269 267 266 269 266 266 264 262 261 262 260 257 255
304 302 301 300 297 294 291 288 285 280 277 276 276 278 278 276 274 273 272 271 272 272 272 271 272 272 273 272 271 270 268 268 269 266 265 263 263 262 263 261 260 260 258
300 298 296 294 293 291 289 287 282 279 276 275 274 273 275 275 275 274 273 273 272 272 272 271 271 271 271 271 270 269 267 267 268 270 265 265 264 262 261 263 262 261 260
295 294 293 292 290 288 286 284 282 279 277 275 275 275 274 273 273 274 273 273 273 273 273 273 272 273 273 274 273 271 268 267 264 265 265 262 260 261 262 263 265 266 265
294 293 292 291 288 286 284 281 280 279 277 276 276 276 276 277 276 276 275 275 275 275 274 274 273 274 274 272 271 271 269 267 266 265 264 261 262 265 268 266 265 266 265
294 293 292 290 289 287 284 281 279 278 278 278 278 277 277 277 276 275 275 275 275 276 275 274 273 271 270 269 269 267 264 263 262 263 263 262 263 265 266 266 266 267 268
294 292 291 290 288 285 283 282 280 280 279 279 279 279 280 280 279 279 279 278 276 274 274 274 274 272 271 269 268 267 267 266 266 263 263 263 266 268 271 271 269 269 269